Greensboro, NC

11:50 AM EST on February 23, 2017 (GMT -0500)
Piedmont Triad International

Weather History for KGSO - October, 2010

Change the Weather History Date:

Wednesday, October 27, 2010

  Actual Average Record
Temperature  
Mean Temperature 75 °F 56 °F  
Max Temperature 80 °F 67 °F 87 °F (1939)
Min Temperature 70 °F 45 °F 20 °F (1962)
Degree Days  
Heating Degree Days 0 9  
Month to date heating degree days 91 163  
Since 1 July heating degree days 95 194  
Cooling Degree Days 10 0  
Month to date cooling degree days 37 35  
Year to date cooling degree days 2012 1482  
Growing Degree Days 26 (Base 50)    
Moisture  
Dew Point 68 °F    
Average Humidity 76    
Maximum Humidity 90    
Minimum Humidity 62    
Precipitation  
Precipitation 1.01 in 0.10 in 1.46 in (1995)
Month to date precipitation 2.63 2.71  
Year to date precipitation 39.71 35.69  
Sea Level Pressure  
Sea Level Pressure 29.94 in    
Wind  
Wind Speed 13 mph (SW)    
Max Wind Speed 28 mph    
Max Gust Speed 36 mph    
Visibility 8 miles    
Events Rain , Thunderstorm    
T = Trace of Precipitation, MM = Missing Value Source: NWS Daily Summary

Daily Weather History Graph

Daily Weather History Graph

Search for Another Location

Airport or City:

Trip Planner

Search our weather history database for the weather conditions in past years. The results will help you decide how hot, cold, wet, or windy it might be!

Date:

Astronomy

Oct. 27, 2010 Rise Set
Actual Time 7:37 AM EDT 6:29 PM EDT
Civil Twilight 7:11 AM EDT 6:55 PM EDT
Nautical Twilight 6:41 AM EDT 7:25 PM EDT
Astronomical Twilight 6:11 AM EDT 7:55 PM EDT
Moon 9:57 PM EDT (10/27) 12:03 PM EDT (10/27)
Length of Visible Light 11h 44m
Length of Day
10h 51m
Waning Gibbous, 79% of the Moon is Illuminated
Oct 27
Waning Gibbous
Oct 30
Last Quarter
Nov 6
New
Nov 13
First Quarter
Nov 21
Full

Hourly Weather History & Observations

Time (EDT) Temp. Heat Index Dew Point Humidity Pressure Visibility Wind Dir Wind Speed Gust Speed Precip Events Conditions
12:26 AM 71.6 °F - 68.0 °F 88% 29.89 in 8.0 mi South 11.5 mph - 0.02 in Rain , Thunderstorm Light Thunderstorms and Rain
12:54 AM 72.0 °F - 68.0 °F 87% 29.82 in 4.0 mi SSE 13.8 mph - 0.10 in Rain , Thunderstorm Thunderstorms and Rain
1:02 AM 71.6 °F - 68.0 °F 88% 29.84 in 1.8 mi South 26.5 mph 34.5 mph 0.05 in Rain , Thunderstorm Heavy Thunderstorms and Rain
1:05 AM 71.6 °F - 68.0 °F 88% 29.88 in 0.8 mi SW 18.4 mph 34.5 mph 0.14 in Rain , Thunderstorm Heavy Thunderstorms and Rain
1:13 AM 71.6 °F - 69.8 °F 94% 29.88 in 0.8 mi SW 15.0 mph 26.5 mph 0.64 in Rain , Thunderstorm Heavy Thunderstorms and Rain
1:23 AM 71.6 °F - 68.0 °F 88% 29.88 in 8.0 mi WSW 15.0 mph 27.6 mph 0.81 in Rain , Thunderstorm Light Thunderstorms and Rain
1:54 AM 71.1 °F - 66.0 °F 84% 29.88 in 10.0 mi WNW 10.4 mph - 0.81 in   Overcast
2:54 AM 73.0 °F - 68.0 °F 84% 29.86 in 10.0 mi South 17.3 mph - 0.01 in   Overcast
3:54 AM 73.9 °F - 68.0 °F 82% 29.87 in 10.0 mi SSW 18.4 mph 28.8 mph N/A   Overcast
4:54 AM 73.0 °F - 68.0 °F 84% 29.87 in 10.0 mi SSW 13.8 mph - N/A   Overcast
5:54 AM 73.9 °F - 66.9 °F 79% 29.89 in 10.0 mi SSW 17.3 mph - N/A   Mostly Cloudy
6:52 AM 73.4 °F - 66.2 °F 78% 29.93 in 10.0 mi SSW 12.7 mph 24.2 mph 0.00 in   Mostly Cloudy
6:54 AM 73.0 °F - 66.9 °F 81% 29.90 in 10.0 mi SW 13.8 mph 24.2 mph 0.00 in   Mostly Cloudy
7:54 AM 73.0 °F - 66.9 °F 81% 29.91 in 10.0 mi SSW 15.0 mph 23.0 mph N/A   Mostly Cloudy
8:54 AM 73.9 °F - 66.9 °F 79% 29.94 in 10.0 mi SSW 15.0 mph - N/A   Scattered Clouds
9:47 AM 75.2 °F - 66.2 °F 73% 29.99 in 10.0 mi SSW 16.1 mph 25.3 mph N/A   Mostly Cloudy
9:54 AM 75.0 °F - 66.9 °F 76% 29.96 in 10.0 mi SSW 15.0 mph 25.3 mph N/A   Mostly Cloudy
10:54 AM 75.9 °F - 66.9 °F 74% 29.97 in 10.0 mi SSW 17.3 mph 35.7 mph N/A   Mostly Cloudy
11:23 AM 78.8 °F - 68.0 °F 69% 30.01 in 10.0 mi SW 17.3 mph 25.3 mph N/A   Mostly Cloudy
12:16 PM 78.8 °F - 66.2 °F 65% 30.01 in 10.0 mi SW 24.2 mph 32.2 mph N/A   Mostly Cloudy
12:54 PM 79.0 °F - 66.9 °F 66% 29.96 in 10.0 mi SW 15.0 mph 24.2 mph N/A   Mostly Cloudy
1:17 PM 80.6 °F 82.7 °F 66.2 °F 61% 29.99 in 10.0 mi SW 16.1 mph 25.3 mph N/A   Mostly Cloudy
1:54 PM 79.0 °F - 66.9 °F 66% 29.95 in 10.0 mi SSW 19.6 mph 29.9 mph N/A   Mostly Cloudy
2:54 PM 80.1 °F 82.3 °F 66.9 °F 64% 29.92 in 10.0 mi SW 28.8 mph 35.7 mph N/A   Mostly Cloudy
3:54 PM 75.0 °F - 68.0 °F 79% 29.92 in 10.0 mi Variable 3.5 mph - 0.00 in Rain Light Rain
4:16 PM 71.6 °F - 68.0 °F 88% 29.98 in 1.5 mi WNW 17.3 mph 21.9 mph 0.02 in Rain Heavy Rain
4:18 PM 71.6 °F - 68.0 °F 88% 29.98 in 0.8 mi West 11.5 mph 21.9 mph 0.06 in Rain Heavy Rain
4:24 PM 71.6 °F - 68.0 °F 88% 29.98 in 2.0 mi West 9.2 mph 21.9 mph 0.15 in Rain Rain
4:34 PM 71.6 °F - 68.0 °F 88% 29.98 in 3.0 mi WSW 10.4 mph - 0.18 in Rain Light Rain
4:54 PM 73.0 °F - 69.1 °F 87% 29.94 in 10.0 mi SW 5.8 mph - 0.19 in Rain Light Rain
5:54 PM 73.0 °F - 69.1 °F 87% 29.94 in 10.0 mi SSW 9.2 mph - 0.00 in   Mostly Cloudy
6:54 PM 73.9 °F - 69.1 °F 85% 29.94 in 10.0 mi South 9.2 mph - N/A   Mostly Cloudy
7:54 PM 73.9 °F - 68.0 °F 82% 29.96 in 10.0 mi SSW 8.1 mph - 0.00 in   Overcast
8:54 PM 72.0 °F - 69.1 °F 91% 29.98 in 9.0 mi West 5.8 mph - 0.01 in Rain Light Rain
9:19 PM 71.6 °F - 69.8 °F 94% 30.01 in 8.0 mi SW 4.6 mph - 0.00 in   Mostly Cloudy
9:54 PM 72.0 °F - 69.1 °F 91% 29.99 in 9.0 mi SW 6.9 mph - 0.00 in   Mostly Cloudy
10:14 PM 71.6 °F - 69.8 °F 94% 30.03 in 9.0 mi SW 11.5 mph - N/A   Mostly Cloudy
10:46 PM 71.6 °F - 68.0 °F 88% 30.03 in 10.0 mi SW 9.2 mph - N/A   Mostly Cloudy
10:54 PM 72.0 °F - 68.0 °F 87% 30.00 in 10.0 mi SW 8.1 mph - N/A   Mostly Cloudy
11:54 PM 71.1 °F - 68.0 °F 90% 29.99 in 10.0 mi SW 5.8 mph - N/A   Mostly Cloudy